QPF
0.00 0.00 0.00 0.00 0.00 0.00 0.00 0.00 0.00 0.00 0.00 0.00 0.01 0.06 0.04 0.08 0.02 0.01 0.00 0.00 0.00 0.00 0.00 0.00 0.00 0.00 0.00 0.00 0.00 0.00 0.05 0.20 0.08 0.02 0.00 0.01 0.00 0.00 0.00 0.00 0.00 0.00 0.00 0.00
0.00 0.00 0.00 0.00 0.00 0.00 0.00 0.00 0.00 0.00 0.00 0.00 0.00 0.03 0.10 0.13 0.02 0.00 0.00 0.00 0.00 0.00 0.00 0.00 0.00 0.00 0.00 0.00 0.00 0.00 0.14 0.15 0.06 0.01 0.00 0.00 0.00 0.00 0.00 0.00 0.00 0.00 0.00 0.00
0.00 0.00 0.00 0.00 0.00 0.00 0.00 0.00 0.00 0.00 0.00 0.00 0.02 0.07 0.16 0.07 0.03 0.02 0.00 0.00 0.00 0.00 0.00 0.00 0.00 0.01 0.01 0.01 0.03 0.04 0.03 0.03 0.02 0.00 0.00 0.00 0.00 0.00 0.00 0.00 0.00 0.00 0.00 0.00
0.00 0.00 0.00 0.00 0.00 0.00 0.00 0.00 0.00 0.00 0.00 0.01 0.00 0.03 0.03 0.05 0.06 0.01 0.00 0.00 0.00 0.00 0.00 0.00 0.02 0.02 0.02 0.04 0.04 0.02 0.01 0.02 0.00 0.00 0.00 0.00 0.00 0.00 0.00 0.00 0.00 0.00 0.00 0.00
0.00 0.00 0.00 0.00 0.00 0.00 0.00 0.00 0.00 0.00 0.00 0.00 0.00 0.03 0.00 0.00 0.00 0.00 0.00 0.00 0.00 0.00 0.00 0.00 0.00 0.00 0.00 0.00 0.00 0.00 0.00 0.01 0.00 0.00 0.00 0.00 0.00 0.01 0.04 0.01 0.00 0.00 0.00 0.00
0.00 0.00 0.00 0.00 0.00 0.00 0.00 0.00 0.00 0.00 0.00 0.00 0.00 0.01 0.00 0.00 0.00 0.01 0.00 0.00 0.00 0.00 0.00 0.00 0.00 0.00 0.00 0.00 0.00 0.00 0.00 0.00 0.00 0.00 0.00 0.00 0.00 0.03 0.05 0.05 0.02 0.00 0.00 0.00
0.00 0.00 0.00 0.00 0.00 0.00 0.00 0.00 0.00 0.00 0.00 0.00 0.00 0.00 0.00 0.00 0.00 0.00 0.00 0.00 0.00 0.00 0.00 0.00 0.00 0.00 0.00 0.00 0.00 0.00 0.00 0.00 0.00 0.00 0.00 0.00 0.01 0.02 0.02 0.03 0.01 0.01 0.00 0.00
0.00 0.00 0.00 0.00 0.00 0.00 0.00 0.00 0.00 0.00 0.00 0.00 0.00 0.00 0.00 0.00 0.00 0.00 0.00 0.00 0.00 0.00 0.00 0.00 0.00 0.00 0.00 0.00 0.00 0.00 0.00 0.00 0.00 0.00 0.00 0.00 0.00 0.00 0.00 0.01 0.03 0.04 0.04 0.02
0.00 0.00 0.00 0.00 0.00 0.00 0.00 0.00 0.00 0.00 0.00 0.00 0.00 0.00 0.00 0.00 0.00 0.00 0.00 0.00 0.00 0.00 0.00 0.00 0.00 0.00 0.00 0.00 0.00 0.00 0.00 0.00 0.00 0.00 0.00 0.00 0.00 0.00 0.00 0.02 0.03 0.03 0.05 0.02
0.00 0.00 0.00 0.00 0.00 0.00 0.00 0.00 0.00 0.00 0.00 0.00 0.00 0.00 0.00 0.00 0.00 0.00 0.00 0.00 0.00 0.00 0.00 0.00 0.00 0.00 0.00 0.00 0.00 0.00 0.00 0.00 0.00 0.00 0.00 0.00 0.00 0.00 0.00 0.01 0.01 0.01 0.01 0.01
0.00 0.00 0.00 0.00 0.00 0.00 0.00 0.00 0.00 0.00 0.00 0.00 0.00 0.00 0.00 0.00 0.00 0.00 0.00 0.00 0.00 0.00 0.00 0.00 0.00 0.00 0.00 0.00 0.00 0.00 0.00 0.00 0.00 0.00 0.00 0.00 0.00 0.00 0.00 0.00 0.00 0.02 0.02 0.02
0.00 0.00 0.00 0.00 0.00 0.00 0.00 0.00 0.00 0.00 0.00 0.00 0.00 0.00 0.00 0.00 0.00 0.00 0.00 0.00 0.00 0.00 0.00 0.00 0.00 0.00 0.00 0.00 0.00 0.00 0.00 0.00 0.00 0.00 0.00 0.00 0.00 0.00 0.00 0.00 0.00 0.00 0.00 0.01
0.00 0.00 0.00 0.00 0.00 0.00 0.00 0.00 0.00 0.00 0.00 0.00 0.00 0.00 0.00 0.00 0.00 0.00 0.00 0.00 0.00 0.00 0.00 0.00 0.00 0.00 0.00 0.00 0.00 0.00 0.00 0.00 0.00 0.00 0.00 0.00 0.00 0.00 0.00 0.00 0.00 0.00 0.09 0.13
0.00 0.00 0.00 0.00 0.00 0.00 0.00 0.00 0.00 0.00 0.00 0.00 0.00 0.00 0.00 0.00 0.00 0.00 0.00 0.00 0.00 0.00 0.00 0.00 0.00 0.00 0.00 0.00 0.00 0.00 0.00 0.00 0.00 0.00 0.00 0.00 0.00 0.00 0.00 0.00 0.00 0.02 0.11 0.07
0.01 0.00 0.00 0.00 0.00 0.00 0.00 0.00 0.00 0.00 0.00 0.00 0.00 0.00 0.00 0.00 0.00 0.00 0.00 0.00 0.00 0.00 0.00 0.00 0.00 0.00 0.00 0.00 0.00 0.00 0.00 0.00 0.00 0.00 0.00 0.00 0.00 0.00 0.00 0.00 0.00 0.01 0.04 0.02
0.00 0.00 0.00 0.00 0.00 0.00 0.00 0.00 0.00 0.00 0.00 0.00 0.00 0.00 0.00 0.00 0.00 0.00 0.00 0.00 0.00 0.00 0.00 0.00 0.00 0.00 0.00 0.00 0.00 0.00 0.00 0.00 0.00 0.00 0.00 0.00 0.00 0.00 0.00 0.00 0.00 0.01 0.02 0.03
0.00 0.00 0.00 0.00 0.00 0.00 0.00 0.00 0.00 0.00 0.00 0.00 0.00 0.00 0.00 0.00 0.00 0.00 0.00 0.00 0.00 0.00 0.00 0.00 0.00 0.00 0.00 0.00 0.00 0.00 0.00 0.00 0.00 0.00 0.00 0.00 0.00 0.00 0.00 0.00 0.00 0.01 0.02 0.01
0.01 0.00 0.00 0.00 0.00 0.00 0.01 0.01 0.01 0.01 0.00 0.00 0.00 0.00 0.00 0.00 0.00 0.00 0.00 0.00 0.00 0.00 0.00 0.00 0.00 0.00 0.00 0.00 0.00 0.00 0.00 0.00 0.00 0.00 0.00 0.00 0.00 0.00 0.00 0.00 0.00 0.00 0.01 0.01
0.01 0.00 0.00 0.00 0.00 0.00 0.03 0.02 0.03 0.04 0.00 0.00 0.00 0.00 0.00 0.00 0.00 0.00 0.00 0.00 0.00 0.00 0.00 0.00 0.00 0.00 0.00 0.00 0.00 0.00 0.00 0.00 0.00 0.00 0.00 0.00 0.00 0.00 0.00 0.00 0.00 0.00 0.00 0.01
0.00 0.01 0.03 0.01 0.00 0.02 0.02 0.00 0.00 0.00 0.00 0.00 0.00 0.00 0.00 0.00 0.00 0.00 0.00 0.00 0.00 0.00 0.00 0.00 0.00 0.00 0.00 0.00 0.00 0.00 0.00 0.00 0.00 0.00 0.00 0.00 0.00 0.00 0.00 0.00 0.00 0.00 0.00 0.01
0.00 0.03 0.03 0.00 0.08 0.05 0.00 0.00 0.00 0.00 0.00 0.00 0.00 0.00 0.00 0.00 0.00 0.00 0.00 0.00 0.00 0.00 0.00 0.00 0.00 0.00 0.00 0.00 0.00 0.00 0.00 0.00 0.00 0.00 0.00 0.00 0.00 0.00 0.00 0.00 0.00 0.00 0.03 0.02
0.01 0.01 0.00 0.01 0.02 0.01 0.00 0.00 0.00 0.00 0.00 0.00 0.00 0.00 0.00 0.00 0.00 0.00 0.00 0.00 0.00 0.00 0.00 0.00 0.00 0.00 0.00 0.00 0.00 0.00 0.00 0.00 0.00 0.00 0.00 0.00 0.00 0.00 0.00 0.00 0.00 0.00 0.02 0.00
0.00 0.00 0.00 0.00 0.01 0.01 0.00 0.00 0.00 0.00 0.00 0.00 0.00 0.00 0.00 0.00 0.00 0.00 0.00 0.00 0.00 0.00 0.00 0.00 0.00 0.00 0.00 0.00 0.00 0.00 0.00 0.00 0.00 0.00 0.00 0.00 0.00 0.00 0.00 0.00 0.00 0.00 0.01 0.00
0.01 0.00 0.00 0.00 0.00 0.00 0.00 0.00 0.00 0.00 0.00 0.00 0.00 0.00 0.00 0.00 0.00 0.00 0.00 0.00 0.00 0.00 0.00 0.00 0.00 0.00 0.00 0.00 0.00 0.00 0.00 0.00 0.00 0.00 0.00 0.00 0.00 0.00 0.00 0.00 0.00 0.00 0.01 0.01
0.00 0.01 0.00 0.00 0.00 0.00 0.00 0.00 0.00 0.00 0.00 0.00 0.00 0.00 0.00 0.00 0.00 0.00 0.00 0.00 0.00 0.00 0.00 0.00 0.00 0.00 0.00 0.00 0.00 0.00 0.00 0.00 0.00 0.00 0.00 0.00 0.00 0.00 0.00 0.00 0.00 0.00 0.00 0.00
0.00 0.00 0.00 0.00 0.00 0.00 0.00 0.00 0.00 0.00 0.00 0.00 0.00 0.00 0.00 0.00 0.00 0.00 0.00 0.00 0.00 0.00 0.00 0.00 0.00 0.00 0.00 0.00 0.00 0.00 0.00 0.00 0.00 0.00 0.00 0.00 0.00 0.00 0.00 0.00 0.00 0.01 0.03 0.03
MSLP
1008.91 1009.75 1010.38 1010.29 1010.76 1011.26 1011.99 1012.78 1012.79 1012.25 1012.29 1013.22 1014.53 1016.24 1017.40 1017.49 1018.10 1018.75 1019.12 1019.33 1019.68 1019.41 1018.55 1019.25 1019.76 1020.11 1020.29 1020.60 1020.86 1020.97 1021.09 1021.07 1021.24 1021.41 1021.06 1020.76 1020.44 1020.34 1020.20 1019.71 1019.61 1019.51 1019.37 1019.25
1009.49 1009.45 1009.30 1009.15 1009.32 1010.62 1011.14 1011.89 1012.17 1011.88 1011.54 1013.81 1015.04 1016.58 1017.77 1017.79 1017.75 1018.06 1018.61 1018.88 1019.04 1018.98 1018.77 1018.98 1019.39 1019.77 1019.89 1020.04 1020.25 1020.76 1020.76 1020.70 1020.79 1021.02 1020.65 1020.33 1020.24 1020.15 1019.82 1019.70 1019.48 1019.36 1019.16 1018.92
1009.45 1008.74 1008.38 1008.12 1008.76 1009.84 1010.66 1011.30 1011.29 1011.58 1012.24 1013.75 1015.47 1017.26 1017.88 1017.91 1017.79 1017.63 1017.45 1017.50 1018.21 1018.32 1018.32 1018.55 1019.18 1019.39 1019.37 1019.86 1020.17 1020.39 1020.25 1020.12 1020.31 1020.41 1020.46 1020.25 1020.07 1020.03 1019.86 1019.66 1019.45 1019.09 1018.95 1018.84
1008.65 1007.81 1007.94 1007.89 1008.33 1009.00 1009.26 1009.74 1010.14 1010.77 1011.87 1013.57 1014.50 1017.04 1018.17 1018.15 1017.91 1017.52 1016.55 1016.67 1017.36 1017.87 1017.97 1018.33 1018.78 1019.01 1019.17 1019.52 1019.72 1019.87 1019.74 1019.90 1019.93 1020.17 1020.28 1020.30 1020.18 1020.16 1019.81 1019.71 1019.45 1018.83 1018.48 1018.42
1007.80 1007.60 1007.42 1007.97 1007.92 1008.00 1008.67 1009.31 1009.73 1010.42 1011.64 1013.19 1015.03 1016.80 1017.68 1018.08 1018.06 1017.29 1016.64 1016.85 1017.46 1017.83 1017.89 1018.36 1018.54 1019.05 1019.12 1019.28 1019.38 1019.62 1019.83 1020.10 1020.10 1020.22 1020.27 1020.29 1020.14 1020.07 1019.74 1019.51 1019.36 1018.85 1018.40 1018.40
1007.52 1006.96 1006.96 1006.95 1007.11 1007.51 1008.06 1009.33 1009.90 1011.01 1012.48 1014.48 1015.25 1016.48 1017.70 1017.80 1017.17 1017.13 1016.95 1016.98 1017.34 1017.71 1017.94 1018.28 1018.57 1018.84 1019.09 1019.32 1019.49 1019.83 1020.01 1020.02 1019.99 1020.04 1019.94 1020.07 1020.06 1019.82 1019.67 1019.26 1019.03 1018.53 1018.26 1018.16
1007.56 1007.13 1006.53 1006.57 1007.06 1007.23 1008.30 1010.39 1011.59 1012.76 1014.19 1015.22 1015.68 1016.74 1016.97 1017.01 1016.81 1016.91 1017.05 1017.34 1017.67 1017.81 1018.10 1018.50 1018.65 1018.82 1019.10 1019.35 1019.59 1019.78 1019.91 1019.95 1019.75 1019.71 1019.63 1019.64 1019.61 1019.40 1019.17 1018.65 1018.36 1018.03 1017.61 1017.89
1008.29 1007.62 1006.97 1006.91 1007.15 1007.86 1008.76 1010.48 1012.17 1013.62 1015.21 1015.60 1016.18 1017.13 1017.14 1016.85 1016.80 1016.75 1016.93 1017.51 1017.62 1017.89 1018.05 1018.29 1018.54 1018.99 1019.41 1019.39 1019.43 1019.61 1019.94 1019.91 1019.48 1019.47 1019.49 1019.42 1019.10 1018.95 1018.59 1018.25 1017.95 1017.62 1017.53 1017.43
1008.74 1008.21 1007.41 1006.94 1006.92 1007.60 1008.85 1010.11 1011.12 1012.97 1014.56 1016.02 1017.02 1017.59 1017.35 1017.16 1016.96 1016.96 1017.23 1017.66 1017.66 1017.92 1018.31 1018.55 1018.57 1018.78 1019.18 1019.21 1019.58 1019.61 1019.62 1019.58 1019.35 1019.23 1019.15 1019.11 1018.95 1018.75 1018.40 1017.77 1017.54 1017.49 1017.10 1016.98
1009.41 1009.32 1008.55 1007.54 1007.31 1007.73 1008.53 1009.60 1011.36 1013.32 1015.12 1016.37 1017.25 1017.57 1017.24 1017.20 1016.91 1017.40 1017.71 1017.83 1017.94 1018.03 1018.30 1018.59 1018.68 1018.98 1019.08 1019.09 1019.14 1019.22 1019.18 1019.12 1018.97 1018.79 1018.81 1018.76 1018.62 1018.39 1018.02 1017.71 1017.10 1016.83 1016.54 1016.38
1009.81 1010.62 1009.98 1008.92 1008.63 1008.67 1009.03 1010.09 1011.75 1013.42 1015.01 1016.23 1017.19 1017.35 1016.26 1016.44 1016.69 1017.25 1017.44 1017.65 1017.80 1017.92 1018.23 1018.61 1018.63 1018.62 1018.54 1018.60 1018.81 1018.97 1019.08 1019.13 1019.05 1018.73 1018.59 1018.50 1018.20 1017.82 1017.60 1017.34 1016.97 1016.56 1016.04 1015.73
1010.41 1011.17 1011.20 1010.44 1009.32 1008.99 1009.33 1010.39 1011.71 1013.81 1014.98 1015.90 1016.59 1016.94 1016.41 1016.58 1016.89 1017.10 1017.23 1017.19 1017.22 1017.47 1017.87 1018.18 1018.20 1018.40 1018.50 1018.93 1019.05 1018.94 1018.94 1018.93 1018.83 1018.66 1018.48 1018.31 1018.01 1017.80 1017.39 1017.01 1016.45 1015.95 1015.46 1015.15
1010.82 1011.77 1012.08 1011.14 1010.58 1009.75 1009.80 1010.42 1011.42 1012.85 1014.23 1015.63 1016.66 1017.01 1016.69 1016.72 1016.91 1016.88 1016.83 1017.00 1017.28 1017.27 1017.91 1018.15 1018.08 1018.44 1018.61 1018.85 1018.89 1018.96 1019.02 1018.90 1018.67 1018.37 1018.27 1018.16 1017.96 1017.71 1017.19 1016.75 1016.17 1015.55 1015.09 1014.60
1011.42 1012.30 1012.65 1012.49 1011.71 1011.02 1010.58 1010.62 1011.32 1012.61 1014.18 1015.22 1015.69 1016.44 1016.76 1016.74 1016.67 1016.58 1016.75 1016.70 1017.06 1017.52 1017.89 1018.24 1018.67 1018.73 1018.85 1019.15 1019.18 1019.21 1019.21 1019.07 1018.87 1018.70 1018.13 1017.98 1017.69 1017.26 1016.74 1016.26 1015.72 1015.21 1014.79 1014.70
1012.03 1012.77 1012.77 1012.38 1011.72 1011.16 1010.85 1010.87 1011.43 1012.28 1012.94 1013.98 1014.62 1015.40 1015.82 1016.09 1016.11 1016.16 1016.48 1016.89 1017.43 1017.75 1018.29 1018.48 1018.76 1018.95 1019.32 1019.47 1019.40 1019.36 1019.29 1019.03 1018.81 1018.62 1018.17 1017.87 1017.40 1016.93 1016.43 1015.92 1015.43 1014.91 1014.49 1014.35
1012.62 1012.99 1013.02 1012.67 1011.83 1011.40 1011.01 1011.43 1011.30 1012.43 1012.99 1013.83 1014.59 1015.23 1015.21 1015.73 1015.81 1016.33 1016.82 1017.21 1017.65 1018.21 1018.50 1018.68 1018.82 1019.17 1019.52 1019.57 1019.54 1019.43 1019.30 1019.13 1018.75 1018.59 1018.36 1017.81 1017.29 1016.84 1016.33 1015.73 1015.33 1014.91 1014.46 1014.15
1013.10 1013.61 1013.75 1013.62 1012.84 1012.49 1012.69 1013.14 1012.62 1013.20 1013.67 1014.53 1015.02 1015.11 1015.47 1016.12 1016.33 1016.66 1017.14 1017.57 1018.12 1018.42 1018.72 1018.87 1019.17 1019.49 1019.70 1019.79 1019.71 1019.60 1019.41 1019.02 1018.80 1018.68 1018.32 1017.79 1017.29 1016.86 1016.27 1015.63 1015.21 1014.81 1014.42 1014.04
1013.25 1013.82 1014.53 1014.80 1014.19 1014.15 1014.70 1014.38 1013.79 1014.09 1014.37 1014.55 1014.63 1015.36 1016.04 1016.54 1017.05 1017.17 1017.63 1018.12 1018.62 1018.83 1019.05 1019.20 1019.47 1019.82 1019.95 1019.84 1019.71 1019.60 1019.46 1019.20 1018.91 1018.62 1018.17 1017.66 1017.26 1016.80 1016.18 1015.70 1015.21 1014.54 1014.03 1013.69
1012.91 1014.04 1015.50 1016.07 1015.91 1015.40 1014.73 1014.55 1014.66 1014.75 1015.27 1015.24 1015.50 1016.21 1016.81 1017.13 1017.50 1018.58 1018.54 1018.62 1018.89 1019.18 1019.25 1019.43 1019.70 1020.00 1020.05 1019.95 1019.99 1019.92 1019.73 1019.38 1018.91 1018.53 1018.07 1017.67 1017.20 1016.72 1016.29 1015.78 1015.23 1014.51 1014.06 1013.57
1013.79 1014.54 1016.04 1017.15 1016.96 1016.22 1014.99 1014.53 1014.42 1015.24 1015.83 1016.10 1016.21 1016.76 1017.19 1017.67 1018.63 1019.39 1019.29 1019.09 1019.23 1019.23 1019.34 1019.64 1019.90 1020.08 1020.06 1020.15 1020.13 1020.12 1019.92 1019.34 1018.92 1018.55 1018.13 1017.64 1017.11 1016.76 1016.33 1015.86 1015.20 1014.44 1013.93 1013.44
1014.93 1015.98 1016.91 1017.52 1017.35 1016.44 1014.74 1014.39 1014.51 1015.73 1016.55 1016.25 1016.55 1017.13 1017.59 1018.24 1018.77 1019.17 1019.33 1019.33 1019.33 1019.34 1019.59 1019.84 1019.98 1020.24 1020.20 1020.11 1020.09 1020.19 1019.82 1019.34 1018.87 1018.42 1018.00 1017.56 1016.99 1016.61 1016.13 1015.78 1015.15 1014.54 1014.08 1013.46
1015.23 1016.32 1017.31 1017.80 1017.44 1016.27 1015.01 1014.90 1015.35 1016.24 1016.26 1016.57 1016.96 1017.44 1018.04 1018.53 1018.94 1019.21 1019.45 1019.56 1019.54 1019.62 1019.93 1019.79 1020.16 1020.26 1020.22 1020.06 1019.95 1019.87 1019.58 1018.99 1018.67 1018.35 1018.00 1017.64 1017.17 1016.67 1016.14 1015.75 1015.24 1014.58 1014.15 1013.69
1015.35 1015.89 1016.42 1017.24 1016.76 1015.96 1015.42 1015.42 1015.56 1015.92 1016.43 1016.86 1017.09 1017.65 1018.00 1018.71 1019.06 1019.29 1019.57 1019.63 1019.54 1019.55 1019.75 1019.75 1020.02 1020.04 1019.87 1019.64 1019.65 1019.59 1018.95 1018.64 1018.50 1018.36 1018.00 1017.67 1017.21 1016.70 1016.13 1015.74 1015.28 1014.81 1014.38 1013.93
1015.50 1015.52 1016.25 1016.73 1016.57 1015.99 1015.59 1015.44 1015.54 1015.93 1016.38 1016.87 1017.32 1017.86 1018.27 1018.87 1019.15 1019.39 1019.60 1019.66 1019.50 1019.49 1019.53 1019.65 1019.73 1019.67 1019.55 1019.25 1019.27 1019.00 1018.67 1018.47 1018.39 1018.21 1017.92 1017.64 1017.28 1016.84 1016.28 1015.52 1015.21 1014.87 1014.51 1014.21
1015.98 1015.78 1016.24 1016.69 1016.36 1016.20 1015.93 1015.78 1015.91 1016.43 1016.89 1017.39 1017.87 1018.11 1018.53 1018.82 1019.13 1019.36 1019.64 1019.58 1019.36 1019.25 1019.37 1019.42 1019.41 1019.25 1019.11 1019.15 1018.92 1018.51 1018.13 1017.96 1018.06 1018.02 1017.85 1017.56 1017.21 1016.82 1016.39 1015.79 1015.29 1014.95 1014.71 1014.56
1016.35 1016.40 1016.69 1016.88 1016.46 1016.32 1016.42 1016.18 1016.52 1017.09 1017.60 1017.93 1018.14 1018.39 1018.42 1018.52 1018.77 1018.92 1019.22 1019.12 1018.98 1018.87 1018.91 1019.05 1018.93 1018.74 1018.78 1018.61 1018.33 1017.77 1017.51 1017.75 1017.79 1017.78 1017.74 1017.54 1017.20 1016.80 1016.35 1015.92 1015.42 1014.96 1014.83 1014.66
Thickness
5789 5768 5751 5767 5770 5768 5760 5743 5739 5747 5756 5745 5727 5709 5702 5709 5708 5701 5697 5691 5690 5690 5698 5689 5681 5674 5668 5660 5650 5644 5638 5633 5626 5620 5616 5613 5610 5606 5603 5604 5600 5598 5597 5593
5767 5753 5777 5786 5788 5766 5759 5742 5736 5749 5760 5729 5719 5703 5697 5703 5704 5703 5696 5691 5688 5687 5688 5684 5676 5670 5665 5657 5648 5637 5632 5628 5622 5613 5610 5607 5603 5599 5597 5594 5592 5589 5587 5586
5756 5772 5791 5788 5777 5764 5749 5741 5748 5746 5743 5728 5707 5690 5689 5696 5699 5701 5701 5700 5688 5686 5684 5681 5671 5664 5659 5648 5641 5633 5628 5623 5615 5610 5604 5600 5597 5593 5590 5587 5586 5586 5583 5579
5768 5789 5783 5780 5766 5768 5751 5768 5764 5759 5744 5711 5725 5672 5683 5685 5685 5693 5708 5699 5690 5684 5683 5675 5664 5658 5651 5642 5634 5627 5623 5616 5612 5606 5599 5594 5590 5585 5583 5579 5577 5579 5575 5572
5770 5780 5775 5764 5772 5782 5764 5770 5766 5760 5743 5724 5707 5674 5677 5680 5675 5682 5695 5691 5682 5676 5671 5663 5655 5649 5642 5637 5631 5623 5616 5608 5605 5599 5594 5589 5584 5579 5575 5572 5569 5568 5568 5565
5778 5801 5791 5784 5789 5789 5783 5762 5751 5741 5721 5691 5698 5681 5667 5668 5681 5683 5685 5684 5678 5671 5665 5659 5653 5644 5637 5630 5623 5614 5609 5604 5598 5592 5587 5581 5576 5572 5566 5564 5560 5560 5559 5555
5769 5779 5794 5795 5774 5782 5763 5725 5691 5695 5680 5675 5693 5675 5672 5680 5683 5679 5677 5674 5666 5661 5655 5649 5642 5637 5630 5621 5612 5606 5600 5595 5592 5588 5582 5575 5569 5564 5560 5558 5555 5553 5554 5547
5737 5733 5776 5787 5771 5755 5752 5727 5687 5674 5663 5677 5684 5657 5663 5680 5680 5682 5678 5667 5660 5654 5650 5644 5636 5625 5619 5615 5609 5602 5595 5590 5587 5580 5573 5567 5564 5557 5552 5548 5546 5545 5543 5540
5730 5738 5780 5783 5785 5771 5744 5725 5733 5699 5694 5665 5656 5661 5674 5673 5673 5671 5662 5657 5653 5647 5638 5632 5627 5623 5613 5606 5597 5592 5587 5583 5579 5574 5567 5559 5553 5547 5542 5541 5538 5534 5533 5532
5747 5721 5761 5774 5778 5770 5751 5748 5709 5685 5669 5662 5651 5648 5646 5660 5663 5659 5653 5648 5644 5639 5631 5626 5620 5611 5605 5599 5594 5589 5583 5578 5573 5566 5558 5551 5544 5539 5533 5530 5529 5527 5527 5525
5750 5725 5729 5751 5739 5732 5728 5714 5705 5692 5673 5653 5638 5639 5670 5667 5664 5653 5648 5644 5640 5634 5625 5619 5615 5610 5604 5598 5590 5583 5576 5569 5563 5558 5550 5543 5537 5532 5525 5522 5519 5518 5520 5520
5744 5719 5702 5723 5743 5751 5740 5720 5701 5669 5672 5662 5645 5638 5668 5664 5656 5654 5649 5647 5645 5634 5626 5620 5615 5608 5600 5589 5582 5577 5570 5563 5556 5549 5541 5534 5528 5521 5517 5515 5514 5514 5515 5515
5740 5712 5686 5698 5711 5728 5723 5722 5708 5688 5670 5663 5642 5635 5665 5660 5652 5650 5647 5643 5637 5635 5623 5615 5611 5600 5593 5585 5578 5569 5561 5555 5548 5542 5535 5526 5519 5513 5511 5509 5509 5510 5511 5511
5733 5707 5693 5673 5690 5702 5705 5712 5705 5682 5650 5656 5654 5646 5649 5649 5647 5647 5640 5641 5636 5624 5614 5606 5594 5588 5583 5574 5567 5560 5553 5545 5539 5532 5529 5521 5515 5511 5510 5508 5508 5509 5509 5507
5720 5694 5703 5703 5709 5711 5708 5706 5698 5686 5679 5659 5662 5653 5654 5650 5650 5647 5639 5631 5620 5613 5602 5593 5588 5580 5571 5564 5558 5552 5545 5540 5532 5524 5521 5514 5510 5508 5508 5506 5506 5508 5508 5508
5710 5689 5700 5692 5708 5709 5704 5697 5703 5688 5680 5662 5658 5652 5658 5651 5647 5637 5627 5619 5610 5600 5594 5588 5583 5574 5564 5557 5550 5544 5537 5530 5524 5516 5511 5507 5505 5503 5503 5502 5502 5503 5506 5506
5698 5689 5684 5675 5695 5693 5674 5676 5683 5675 5672 5657 5644 5648 5648 5640 5636 5625 5619 5612 5602 5596 5587 5581 5573 5564 5554 5546 5540 5534 5528 5523 5516 5509 5505 5502 5499 5496 5497 5497 5498 5499 5502 5505
5694 5690 5674 5667 5672 5647 5661 5671 5677 5665 5663 5660 5657 5648 5639 5631 5620 5615 5608 5599 5590 5583 5576 5569 5560 5550 5542 5537 5532 5526 5519 5512 5507 5502 5498 5496 5492 5490 5489 5490 5492 5497 5501 5504
5704 5685 5664 5651 5646 5662 5666 5666 5658 5654 5647 5652 5642 5635 5627 5620 5610 5594 5593 5587 5578 5570 5565 5559 5550 5540 5534 5529 5522 5516 5508 5502 5498 5495 5491 5488 5485 5483 5481 5482 5484 5490 5495 5501
5692 5678 5657 5642 5640 5634 5660 5668 5667 5654 5621 5638 5632 5625 5619 5609 5583 5577 5581 5576 5568 5563 5558 5548 5541 5533 5528 5520 5514 5507 5500 5496 5491 5486 5481 5478 5477 5474 5472 5473 5477 5483 5489 5497
5665 5657 5647 5629 5631 5640 5664 5670 5667 5626 5614 5635 5628 5619 5612 5596 5584 5579 5572 5566 5560 5556 5547 5539 5533 5526 5521 5515 5508 5500 5494 5490 5483 5478 5473 5470 5470 5467 5465 5465 5469 5475 5482 5491
5661 5647 5636 5630 5625 5632 5664 5658 5642 5631 5633 5624 5618 5610 5596 5587 5577 5569 5562 5556 5551 5545 5536 5532 5525 5520 5516 5509 5503 5496 5489 5484 5477 5471 5466 5461 5458 5457 5456 5456 5460 5468 5474 5483
5658 5657 5643 5639 5637 5650 5656 5648 5647 5637 5627 5622 5616 5605 5592 5578 5569 5561 5552 5548 5545 5540 5533 5528 5521 5516 5512 5506 5499 5492 5488 5481 5471 5462 5456 5451 5447 5445 5444 5445 5448 5456 5464 5474
5660 5666 5650 5647 5649 5650 5650 5650 5647 5638 5630 5621 5608 5596 5584 5569 5562 5554 5546 5541 5539 5536 5530 5524 5519 5516 5510 5503 5498 5492 5484 5475 5465 5456 5449 5441 5434 5429 5429 5435 5438 5444 5455 5464
5656 5659 5650 5640 5645 5643 5644 5642 5637 5627 5616 5607 5598 5588 5574 5562 5556 5549 5541 5536 5535 5533 5527 5521 5517 5513 5508 5502 5497 5492 5486 5476 5463 5451 5441 5431 5422 5415 5413 5419 5425 5433 5443 5454
5651 5646 5632 5624 5638 5635 5632 5633 5625 5612 5603 5596 5588 5579 5570 5559 5552 5547 5538 5534 5533 5531 5527 5520 5516 5514 5508 5503 5497 5494 5486 5473 5461 5448 5435 5421 5413 5403 5404 5405 5414 5424 5435 5447